Location: Ettikon
(49.6167°N, 8.2667°E)
Time: 07:23:40
(UTC+00:00)

Daily predictions for brighter satellites

Satellite Brightness Start Highest point End
(mag) Time Altitude Azimuth Time Altitude Azimuth Time Altitude Azimuth
Cosmos 1844 Rocket 4.4 16:31:21 10° ESE 16:33:48 13° E 16:36:16 10° ENE
Cosmos 1025 Rocket 3.5 16:30:14 10° SSW 16:34:32 68° WNW 16:38:55 10° N
CZ-2C R/B 4.0 16:31:17 10° ESE 16:35:47 28° ENE 16:40:30 10° N
H-2A R/B 2.4 16:33:28 10° SSE 16:37:29 80° ENE 16:41:42 10° NNW
Okean-O 4.1 16:35:01 10° E 16:37:46 16° ENE 16:40:32 10° NNE
H-2A R/B 3.3 16:35:32 10° E 16:38:53 18° NE 16:42:17 10° NNE
CZ-4B R/B 3.1 16:36:49 10° NE 16:39:03 16° E 16:41:15 10° SE
Okean O Rocket 1.7 16:35:59 10° SSE 16:40:21 60° ENE 16:44:44 10° N
Cosmos 773 Rocket 4.0 16:35:45 10° NNW 16:40:52 57° ENE 16:45:55 10° SE
SeaSat 1 3.5 16:36:47 10° NNE 16:41:26 42° NW 16:46:03 10° WSW
YAOGAN 6 3.5 16:38:43 10° S 16:42:12 54° W 16:45:45 10° NNW
SMAP 3.0 16:37:43 10° SSE 16:42:22 82° ENE 16:47:03 10° NNW
Cosmos 1626 2.1 16:39:17 10° S 16:42:56 66° E 16:46:38 10° NNE
CZ-4B R/B 3.2 16:38:54 10° SSE 16:44:26 79° ENE 16:50:06 10° NNW
SL-24 R/B 4.1 16:40:37 10° SSE 16:44:56 74° ENE 16:49:37 10° N
AQUARIUS 4.1 16:44:48 10° SSE 16:49:18 83° ENE 16:53:49 10° NNW
Cosmos 1603 4.0 16:44:16 10° NNW 16:49:59 76° WSW 16:55:41 10° SSE
Cosmos 2297 Rocket 4.0 16:45:31 10° W 16:50:09 25° NW 16:54:49 10° NNE
Meteor 2-10 Rocket 4.1 16:45:28 10° N 16:50:37 37° ENE 16:55:33 10° SE
OPS 8737 4.5 16:52:34 10° NW 16:55:35 55° NE 16:59:22 10° SE
Cosmos 1606 Rocket 3.6 16:51:40 10° N 16:56:02 60° ENE 17:00:22 10° SSE
CZ-2D R/B 3.9 16:53:41 10° SE 16:57:08 32° ENE 17:00:36 10° N
H-2A R/B 2.1 16:53:18 10° NNE 16:57:47 69° ESE 17:02:08 10° S
USA 234 3.8 16:53:06 10° ENE 16:59:18 47° N 17:05:31 10° WNW
YAOGAN 1 3.7 16:56:32 10° ESE 16:59:55 23° ENE 17:03:19 10° N
Cosmos 1892 Rocket 4.2 16:56:10 10° SSE 17:00:02 32° E 17:03:56 10° NNE
ATLAS 5 CENTAUR R/B 1.4 16:57:31 10° SW 17:01:32 80° SE 17:06:05 10° NE
CZ-4C R/B 3.2 16:58:33 10° N 17:01:41 62° WNW 17:04:47 10° SSW
FengYun 1-2 T 4.3 16:56:26 10° SSE 17:02:00 88° ENE 17:07:39 10° NNW
Tsikada Rocket 4.4 16:57:24 10° SSW 17:03:42 68° WNW 17:09:57 10° N
SL-14 R/B 3.2 17:01:33 10° S 17:05:26 89° E 17:09:22 10° N
Helios 1A Rocket 4.2 17:02:42 10° ESE 17:05:47 21° ENE 17:08:53 10° NNE
RESURS DK-1 2.9 17:02:57 10° SW 17:07:03 59° NW 17:11:09 10° NNE
MOS 1 Rocket 4.0 17:03:21 10° NE 17:07:03 27° E 17:10:41 10° SSE
ATLAS 3B R/B 4.0 17:01:13 10° NW 17:07:48 47° WSW 17:14:39 10° S
Cosmos 2228 2.9 17:03:45 10° N 17:08:02 87° E 17:12:19 10° S
NOSS 7 (E) 4.3 17:06:13 10° SW 17:09:52 88° NW 17:12:25 14° NE
Cosmos 2142 Rocket 4.4 17:03:51 10° N 17:10:04 84° E 17:16:12 10° S
SKYMED 2 4.0 17:08:59 10° NNE 17:13:05 39° E 17:17:10 10° SSE
Meteor 2-5 Rocket 3.7 17:08:48 10° S 17:14:23 87° WNW 17:19:57 10° NNE
Cosmos 1538 Rocket 3.9 17:09:25 10° NNW 17:14:35 63° ENE 17:19:42 10° SE
Aureole 3 4.1 17:11:49 10° NNE 17:14:49 23° ENE 17:17:25 10° ESE
CZ-4C R/B 3.0 17:10:04 10° WSW 17:15:07 46° NW 17:21:14 10° NE
CZ-3B R/B 1.7 17:14:18 10° NW 17:16:26 47° NNE 17:20:09 14° E
SJ 16-02 2.6 17:13:56 10° SSE 17:17:18 22° E 17:18:57 18° ENE
Nadezhda 4 Rocket 4.4 17:13:06 10° SSE 17:18:48 38° E 17:24:27 10° NNE
Cosmos 1777 Rocket 4.1 17:15:20 10° S 17:20:27 56° ESE 17:25:39 10° NNE
Cosmos 2263 Rocket 2.5 17:16:43 10° SW 17:22:23 72° WNW 17:28:05 10° NNE
YAOGAN 3 4.5 17:18:22 10° SSE 17:22:42 76° ENE 17:27:05 10° N
Cosmos 1455 2.8 17:22:00 10° N 17:25:29 33° ENE 17:28:58 10° SE
Cosmos 1354 Rocket 4.5 17:21:39 10° SW 17:26:56 64° WNW 17:32:16 10° NNE
Cosmos 2058 Rocket 3.1 17:23:00 10° N 17:27:29 63° ENE 17:31:57 10° SSE
Cosmos 1300 3.9 17:26:02 10° NNW 17:29:43 45° W 17:33:21 10° SSW
COSMOS 2406 4.4 17:26:28 10° NNW 17:30:59 23° NE 17:32:43 20° ENE
X-37B 2.9 17:30:45 10° S 17:32:26 14° SSE 17:33:14 13° SE
ARGOS 3.6 17:33:18 10° SE 17:38:13 38° ENE 17:43:10 10° N
Lacrosse 5 1.8 17:36:00 10° NW 17:41:06 84° NE 17:45:00 17° ESE
CREW DRAGON DEMO-1 DEB 2.5 17:38:17 10° WNW 17:41:11 77° NNE 17:41:52 48° E
NOSS 3-1 (C) 4.2 17:34:20 10° NW 17:41:14 50° NE 17:47:11 19° ESE
Okean 1-7 Rocket 3.7 17:37:03 10° S 17:41:30 58° E 17:46:01 10° NNE
Cosmos 1726 Rocket 4.2 17:38:41 10° NNW 17:42:59 59° W 17:47:18 10° S
ERS-2 2.3 17:42:02 25° NE 17:43:49 47° ESE 17:47:19 10° S
ISS -2.3 17:41:57 10° SSW 17:44:42 23° SE 17:45:00 23° SE
CZ-2C R/B 3.8 17:45:49 23° E 17:45:49 23° E 17:49:45 10° SE
Cosmos 1939 Rocket 3.8 17:41:18 10° S 17:45:20 53° W 17:49:22 10° NNW
PSLV R/B 4.3 17:43:31 20° NE 17:46:09 45° E 17:50:12 10° S
CSL-04 Debris 4.4 17:43:09 10° SE 17:48:16 47° ENE 17:53:25 10° N
Meteor 1-24 Rocket 4.1 17:43:18 10° SSW 17:48:34 59° WNW 17:53:49 10° N
COSMOS 2455 2.8 17:43:45 10° SSW 17:49:44 72° ESE 17:54:02 20° NE
Cosmos 1626 Rocket 3.9 17:48:41 10° SSE 17:52:46 40° E 17:54:01 32° NE
Cosmos 1833 Rocket 3.7 17:49:33 10° NNW 17:54:14 26° NE 17:54:41 26° NE
Cosmos 1844 4.0 17:49:29 10° S 17:54:47 43° ESE 17:57:10 29° ENE
Cosmos 2026 Rocket 4.4 17:50:29 10° SSE 17:55:55 35° E 18:01:25 10° NNE
Cosmos 2082 Rocket 3.7 17:51:55 10° N 17:55:56 19° NE 17:55:56 19° NE
IRS-1C Rocket 4.2 17:50:52 10° SSE 17:56:07 78° WSW 18:01:25 10° NNW
USA 281 4.4 17:56:41 20° NE 17:57:21 20° NE 18:01:52 10° N
CZ-4 R/B 1.3 17:53:28 10° SSE 17:57:34 87° ENE 18:01:38 10° NNW
USA 229 DEB 4.2 17:51:17 10° NW 17:58:11 47° NNE 18:01:49 28° E
USA 229 4.2 17:51:24 10° NW 17:58:16 47° NNE 18:01:52 28° E
NOAA 15 4.5 17:53:41 10° SSE 17:58:55 80° ENE 18:04:13 10° NNW
COSMO-SKYMED 1 2.8 17:56:57 10° N 18:01:17 71° WNW 18:05:36 10° SSW
SL-08 RB Rocket 4.0 18:05:15 41° ENE 18:05:15 41° ENE 18:09:16 10° N
USA 267 4.2 18:04:13 25° ESE 18:05:13 26° SE 18:10:29 10° S
CZ-4B R/B 2.9 18:08:15 10° N 18:11:25 37° WNW 18:14:32 10° SW
Okean-O 2.8 18:09:18 10° S 18:13:43 74° WSW 18:18:11 10° NNW
NOSS 3-1 (A) 4.2 18:06:52 10° NW 18:13:46 50° NE 18:16:57 34° E
CZ-2C R/B 3.9 18:10:09 10° S 18:15:20 54° W 18:20:50 10° NNW
Cosmos 923 Rocket 4.0 18:10:55 10° NNW 18:16:18 90° ENE 18:21:38 10° SSE
Cosmos 1844 Rocket 2.6 18:11:04 10° SSW 18:16:43 75° ESE 18:19:24 32° NE
H-2A R/B 2.0 18:12:42 10° SSE 18:17:41 80° WSW 18:22:50 10° NNW
Cosmos 1689 Rocket 4.1 18:20:00 21° SSW 18:20:00 21° SSW 18:21:07 10° SSW
Meteor 1-21 Rocket 4.0 18:13:49 10° S 18:19:20 78° E 18:24:54 10° NNE
Aureole 2 Rocket 2.9 18:17:00 10° SSW 18:19:28 50° WSW 18:19:28 50° WSW
ATLAS 2AS CENTAUR R/B 4.0 18:13:21 10° W 18:20:36 37° NNW 18:25:30 19° NNE
Cosmos 2195 Rocket 4.5 18:15:11 10° S 18:21:23 62° E 18:27:39 10° NNE
Cosmos 158 Rocket 4.1 18:16:21 10° NNW 18:21:41 77° WSW 18:27:04 10° SSE
Meteor 2-8 Rocket 4.3 18:15:56 10° N 18:22:01 69° ENE 18:28:06 10° SSE
Cosmos 1680 Rocket 3.3 18:18:25 10° NNW 18:23:43 81° ENE 18:26:36 27° SSE
Cosmos 1898 Rocket 4.3 18:20:09 10° S 18:23:42 35° SE 18:23:42 35° SE
Cosmos 1627 Rocket 4.4 18:25:10 10° S 18:31:14 65° E 18:37:27 10° NNE
SAR-Lupe-4 4.0 18:31:27 58° WNW 18:31:35 59° WNW 18:35:07 10° SSW
Cosmos 2098 Rocket 4.3 18:25:44 10° SSE 18:32:38 57° E 18:39:52 10° NNE
Cosmos 1602 Rocket 4.0 18:28:27 10° S 18:31:34 46° S 18:31:34 46° S
Cosmos 1818 3.4 18:28:14 10° SW 18:33:41 86° SE 18:34:52 56° NE
YAOGAN 1 3.6 18:31:35 10° S 18:35:45 46° W 18:39:57 10° NNW
Cosmos 1428 Rocket 4.4 18:30:03 10° S 18:36:15 66° E 18:42:31 10° NNE
CSL-04 Rocket 3.7 18:34:07 10° SSE 18:39:31 78° WSW 18:45:03 10° NNW
Helios 1A Rocket 3.8 18:36:37 10° S 18:40:38 48° W 18:44:41 10° NNW
USA 234 3.3 18:40:20 51° ENE 18:41:49 64° NNE 18:48:18 10° WNW
Iridium 4 Rocket 3.7 18:40:09 10° N 18:45:56 81° W 18:51:16 10° S
Cosmos 1092 Rocket 3.9 18:40:10 10° S 18:46:23 83° W 18:52:35 10° N
ATLAS 5 CENTAUR R/B 3.3 18:43:08 10° W 18:46:45 25° NNW 18:47:38 24° N
Cosmos 1812 Rocket 3.8 18:44:41 10° NNW 18:48:54 65° W 18:48:54 65° W
Meteor 2-15 Rocket 4.5 18:45:46 10° N 18:51:11 60° NE 18:51:11 60° NE
Cosmos 2344 4.2 18:44:26 10° NW 18:53:29 81° NE 18:59:35 35° SE
SJ 16-02 2.2 18:51:19 10° SW 18:55:35 47° WNW 18:56:00 45° NW
Cosmos 2112 Rocket 4.4 18:55:56 10° NNW 19:01:07 60° WSW 19:02:18 47° SSW
CZ-4C R/B 4.0 19:00:28 10° WNW 19:05:15 25° N 19:06:30 23° N
Cosmos 2263 Rocket 4.4 19:03:24 10° W 19:07:22 19° NW 19:10:38 12° N
COSMOS 2406 3.6 19:10:18 10° NNW 19:14:49 56° NNW 19:14:49 56° NNW
ISS -0.3 19:17:49 10° WSW 19:17:58 11° WSW 19:17:58 11° WSW
Lacrosse 5 3.6 19:19:31 10° WNW 19:23:36 25° SW 19:24:15 24° SW
CZ-2C R/B 3.4 19:27:19 49° WSW 19:27:19 49° WSW 19:31:32 10° SSW
NOSS 3-1 (C) 4.4 19:25:10 10° NW 19:32:31 62° SW 19:34:39 48° S
COSMOS 2455 4.2 19:30:50 10° W 19:36:12 32° NW 19:37:13 30° NNW
Cosmos 1553 Rocket 4.4 19:29:58 10° NNW 19:36:14 63° W 19:36:14 63° W
Cosmos 1833 Rocket 3.9 19:33:07 10° NNW 19:36:25 36° NW 19:36:25 36° NW
USA 281 4.2 19:43:33 36° N 19:43:33 36° N 19:47:17 10° NNW
Cosmos 2082 Rocket 3.8 19:35:21 10° NNW 19:37:48 26° NNW 19:37:48 26° NNW
USA 267 4.2 19:51:34 39° SW 19:51:34 39° SW 19:55:29 10° SW
USA 229 DEB 4.2 19:42:19 10° NW 19:49:18 63° WSW 19:49:18 63° WSW
USA 229 4.1 19:42:25 10° NW 19:49:21 63° WSW 19:49:21 63° WSW
NOSS 3-1 (A) 4.4 19:57:44 10° NW 20:04:27 60° WSW 20:04:27 60° WSW
ATLAS 2AS CENTAUR R/B 4.3 20:07:13 10° NW 20:12:56 28° N 20:12:56 28° N
